Showing default

CARTOSAT 2E, 42767

Orbit data source: Space-Track

CARTOSAT 2E, 42767 is a payload satellite owned by ISRO (IN) in SSO that was launched on Fri, 23 Jun 2017 UTC via a PSLV-XL launch vehicle from the Sirharikota (SRI). Payload-class satellites include a variety of spacecraft equipped with specific instruments for various scientific and technological missions. These include communications satellites like Starlink; space stations such as the ISS; scientific satellites like the Hubble; Earth observation satellites from companies like Planet Labs, Umbra, and HawkEye 360; GPS; miniature CubeSats for education and research; and military/defense satellites.

Loading next visibility...
Identifier
42767, 2017-036C
Orbit
SSO
Country
Flag of ININ / IND
Related business
Manufacturer
ISRO
Mission
Operational Defense Imaging
Bus & Motor
IRS-2, AOCS
Mass
712 kg wet, 639 kg dry
Launch date (UTC)
2017-06-23 (9 years ago)
Launch vehicle
PSLV-XL
Launch site
Sirharikota (SRI)
Object type
Payload
Rocket body
Debris
Shape & HBR
Hex Cyl + 2 Pan, 4.0 m
Radar Cross Section
9.780 m², Large (>1 m²)

Expand to show TLE details & history
Last TLE update: 22 hours ago

TLE from 22 hours ago
0 CARTOSAT 2E
1 42767U 17036C   26172.52324997  .00004193  00000-0  20196-3 0  9990
2 42767  97.4268 232.2553 0002199 297.1780  62.9230 15.19282669498801
Epoch: 2026-06-21T12:33Z
TLE epoch observation values (Epoch: 2026-06-21T12:33:28.797Z)
Latitude
-0.00005°
Longitude
134.16302°
Altitude
510.407 km
Speed
7.609 km/s
True Right ascension
15h 29m 01s
True Declination
0° 00' 00"
Sunlit
Object was in full shadow at epoch
Visualization orbit readout
Latitude
Unknown
Longitude
Unknown
Altitude
Unknown
Speed
Unknown
Apparent Right ascension
Unknown
Apparent Declination
Unknown
Sunlit
N/A
Visualization observer readout
Local Sidereal Time
21:41:48
Azimuth
Unknown
Elevation
Unknown
Doppler factor
Unknown
Orbital elements
Apogee altitude
506.489 km
Perigee altitude
503.461 km
Semi-major axis
6,883.112 km
Eccentricity
0.00022
Inclination
97.4268°
RAAN
232.2553°
Arg. of periapsis
297.178°
True anomaly
62.94544°
Mean anomaly
62.923°
Eccentric anomaly
62.93422°
Mean motion
3.80072 °/min
Orbital period
94.72 mins
BSTAR
0.00020196
Loading maneuver chart data...
Computing Atmospheric mass density...

Documentation

Showing up to 5 results
|